period_start,C,m1,H,J0,J1,J2,J3,J4,J5,JA,JB,JC,JD,JJ,JK,JN,#
2014-02-09 00:00:14,0.16,8.69,0.00,-8.06,-2.48,-0.73,6.73,32.33,1029.80,2147.99,1407.77,1845.94,1964.42,349.85,366.32,33.71,0000 0000 0000 0000 000000
2014-02-09 00:01:14,0.37,8.70,0.00,-8.08,-2.48,-0.75,6.72,32.46,1029.80,2147.99,1407.34,1845.58,1964.16,349.42,366.05,33.71,0000 0000 0000 0000 000000
2014-02-09 00:02:14,0.53,8.70,0.00,-8.11,-2.48,-0.72,6.83,32.54,1029.80,2147.99,1407.12,1845.23,1964.05,350.50,367.37,33.72,0000 0000 0000 0000 000000
2014-02-09 00:03:14,0.33,8.70,0.00,-8.14,-2.47,-0.78,6.73,32.54,1029.80,2147.99,1407.00,1845.08,1963.95,349.17,366.25,33.72,0000 0000 0000 0000 000000
2014-02-09 00:04:15,0.19,8.70,0.00,-8.12,-2.47,-0.79,6.67,32.25,1029.80,2147.99,1406.69,1845.01,1963.56,348.99,365.66,33.73,0000 0000 0000 0000 000000
2014-02-09 00:05:15,0.35,8.70,0.00,-8.09,-2.47,-0.75,6.98,32.42,1029.80,2147.97,1406.28,1844.91,1963.22,351.63,368.38,33.74,0000 0000 0000 0000 000000
2014-02-09 00:06:15,0.38,8.71,0.00,-8.04,-2.47,-0.79,6.87,32.54,1029.80,2147.94,1406.09,1844.52,1963.07,349.22,365.80,33.74,0000 0000 0000 0000 000000
2014-02-09 00:07:15,0.39,8.71,0.00,-8.06,-2.46,-0.73,6.92,32.29,1029.80,2147.96,1405.71,1844.19,1962.84,350.36,367.05,33.75,0000 0000 0000 0000 000000
2014-02-09 00:08:16,0.47,8.71,0.00,-8.05,-2.46,-0.71,6.94,32.50,1029.80,2147.96,1405.28,1844.06,1962.41,350.73,367.39,33.75,0000 0000 0000 0000 000000
2014-02-09 00:09:16,0.43,8.71,0.00,-8.06,-2.46,-0.76,6.84,32.42,1029.80,2147.96,1405.10,1843.97,1962.16,350.36,367.01,33.76,0000 0000 0000 0000 000000
2014-02-09 00:10:16,0.26,8.72,0.00,-8.06,-2.46,-0.76,6.98,32.58,1029.80,2147.94,1404.84,1843.53,1962.03,349.33,365.94,33.77,0000 0000 0000 0000 000000
2014-02-09 00:11:16,0.37,8.72,0.00,-8.04,-2.46,-0.75,6.92,32.50,1029.80,2147.93,1404.35,1843.19,1961.88,350.81,367.45,33.77,0000 0000 0000 0000 000000
2014-02-09 00:12:16,0.54,8.72,0.00,-8.05,-2.46,-0.70,6.87,32.50,1029.80,2147.93,1404.12,1843.06,1961.44,350.03,366.64,33.78,0000 0000 0000 0000 000000
2014-02-09 00:13:17,0.34,8.72,0.00,-8.06,-2.46,-0.70,6.73,32.38,1029.80,2147.96,1403.91,1843.00,1961.16,349.96,366.38,33.78,0000 0000 0000 0000 000000
2014-02-09 00:14:17,0.30,8.72,0.00,-8.04,-2.46,-0.70,6.98,32.54,1029.80,2147.96,1403.44,1842.74,1961.05,351.40,368.24,33.79,0000 0000 0000 0000 000000
2014-02-09 00:15:17,0.44,8.73,0.00,-8.03,-2.46,-0.71,6.77,32.58,1029.80,2147.97,1403.16,1842.36,1960.83,348.96,365.57,33.80,0000 0000 0000 0000 000000
2014-02-09 00:16:18,0.44,8.73,0.00,-8.06,-2.46,-0.68,6.99,32.46,1029.80,2147.96,1402.91,1842.15,1960.35,351.52,368.22,33.80,0000 0000 0000 0000 000000
2014-02-09 00:17:18,0.41,8.73,0.00,-8.05,-2.46,-0.68,6.76,32.42,1029.80,2147.96,1402.40,1842.04,1960.13,350.30,366.94,33.81,0000 0000 0000 0000 000000
2014-02-09 00:18:18,0.42,8.73,0.00,-8.05,-2.46,-0.73,6.89,32.38,1029.80,2147.96,1402.14,1841.80,1960.04,350.65,367.30,33.81,0000 0000 0000 0000 000000
2014-02-09 00:19:18,0.29,8.74,0.00,-8.05,-2.46,-0.74,6.84,32.33,1029.80,2147.96,1402.01,1841.37,1959.82,350.55,367.36,33.82,0000 0000 0000 0000 000000
2014-02-09 00:20:19,0.40,8.74,0.00,-8.04,-2.46,-0.72,6.84,32.38,1029.80,2147.96,1401.55,1841.14,1959.37,350.87,367.95,33.82,0000 0000 0000 0000 000000
2014-02-09 00:21:19,0.53,8.74,0.00,-8.04,-2.46,-0.73,6.89,32.42,1029.80,2147.92,1401.20,1841.05,1959.14,350.08,367.22,33.83,0000 0000 0000 0000 000000
2014-02-09 00:22:19,0.28,8.74,0.00,-8.02,-2.46,-0.76,6.85,32.25,1029.80,2147.88,1401.06,1840.96,1959.03,349.74,365.80,33.84,0000 0000 0000 0000 000000
2014-02-09 00:23:19,0.10,8.74,0.00,-7.99,-2.46,-0.76,6.83,32.46,1029.80,2147.86,1400.83,1840.68,1958.89,349.81,366.72,33.84,0000 0000 0000 0000 000000
2014-02-09 00:24:19,0.30,8.75,0.00,-8.00,-2.46,-0.73,6.83,32.46,1029.80,2147.92,1400.36,1840.29,1958.49,350.34,366.57,33.85,0000 0000 0000 0000 000000
2014-02-09 00:25:20,0.71,8.75,0.00,-8.01,-2.46,-0.71,6.87,32.50,1029.80,2147.95,1400.13,1840.10,1958.19,349.97,366.53,33.85,0000 0000 0000 0000 000000
2014-02-09 00:26:20,0.34,8.75,0.00,-8.02,-2.46,-0.64,6.78,32.58,1029.80,2147.95,1400.01,1840.03,1958.06,348.97,365.50,33.86,0000 0000 0000 0000 000000
2014-02-09 00:27:20,0.19,8.75,0.00,-7.97,-2.46,-0.70,6.84,32.38,1029.80,2147.95,1399.60,1839.95,1957.91,350.41,366.94,33.87,0000 0000 0000 0000 000000
2014-02-09 00:28:20,0.31,8.75,0.00,-7.94,-2.46,-0.71,6.85,32.38,1029.80,2147.92,1399.23,1839.62,1957.49,350.32,366.26,33.87,0000 0000 0000 0000 000000
2014-02-09 00:29:20,0.51,8.76,0.00,-7.94,-2.46,-0.76,6.86,32.42,1029.80,2147.93,1399.05,1839.24,1957.19,349.85,366.29,33.88,0000 0000 0000 0000 000000
2014-02-09 00:30:21,0.42,8.76,0.00,-7.95,-2.46,-0.71,6.64,32.25,1029.80,2147.92,1398.60,1839.08,1957.05,349.10,365.54,33.88,0000 0000 0000 0000 000000
2014-02-09 00:31:21,0.36,8.76,0.00,-7.94,-2.46,-0.71,6.77,32.21,1029.80,2147.88,1398.22,1838.98,1956.84,349.96,366.43,33.89,0000 0000 0000 0000 000000
2014-02-09 00:32:21,0.35,8.76,0.00,-7.94,-2.46,-0.77,6.89,32.17,1029.80,2147.85,1398.03,1838.64,1956.38,350.32,366.80,33.89,0000 0000 0000 0000 000000
2014-02-09 00:33:21,0.42,8.77,0.00,-7.93,-2.45,-0.78,6.75,32.54,1029.80,2147.83,1397.53,1838.25,1956.14,348.89,365.29,33.90,0000 0000 0000 0000 000000
2014-02-09 00:34:22,0.53,8.77,0.00,-7.95,-2.45,-0.73,7.01,32.67,1029.80,2147.88,1397.19,1838.09,1956.03,350.78,367.30,33.91,0000 0000 0000 0000 000000
2014-02-09 00:35:22,0.38,8.77,0.00,-7.96,-2.45,-0.68,6.93,32.50,1029.80,2147.86,1397.01,1838.00,1955.78,350.36,366.88,33.91,0000 0000 0000 0000 000000
2014-02-09 00:36:22,0.27,8.77,0.00,-7.99,-2.45,-0.71,6.88,32.46,1029.80,2147.89,1396.48,1837.63,1955.32,351.15,367.48,33.92,0000 0000 0000 0000 000000
2014-02-09 00:37:23,0.60,8.78,0.00,-8.01,-2.45,-0.75,6.86,32.33,1029.80,2147.88,1396.17,1837.24,1955.11,349.53,366.09,33.92,0000 0000 0000 0000 000000
2014-02-09 00:38:23,0.53,8.78,0.00,-8.04,-2.44,-0.73,6.77,32.50,1029.80,2147.86,1395.68,1837.08,1954.83,349.57,366.19,33.93,0000 0000 0000 0000 000000
2014-02-09 00:39:23,0.43,8.78,0.00,-8.05,-2.44,-0.72,6.82,32.08,1029.80,2147.89,1395.25,1836.91,1954.34,350.14,366.80,33.94,0000 0000 0000 0000 000000
2014-02-09 00:40:24,0.57,8.79,0.00,-8.05,-2.44,-0.72,6.82,32.04,1029.80,2147.88,1394.82,1836.45,1954.11,349.72,366.51,33.94,0000 0000 0000 0000 000000
2014-02-09 00:41:24,0.55,8.79,0.00,-8.05,-2.43,-0.69,6.83,32.25,1029.80,2147.91,1394.32,1836.17,1953.94,349.99,366.61,33.95,0000 0000 0000 0000 000000
2014-02-09 00:42:24,0.54,8.79,0.00,-8.00,-2.43,-0.66,6.75,32.46,1029.80,2147.89,1394.06,1836.06,1953.46,349.78,366.36,33.95,0000 0000 0000 0000 000000
2014-02-09 00:43:25,0.33,8.80,0.00,-7.97,-2.43,-0.69,6.90,32.33,1029.80,2147.88,1393.70,1835.84,1953.16,350.32,367.14,33.96,0000 0000 0000 0000 000000
2014-02-09 00:44:25,0.40,8.80,0.00,-7.97,-2.43,-0.76,6.88,32.42,1029.80,2147.91,1393.23,1835.37,1952.91,349.44,365.92,33.96,0000 0000 0000 0000 000000
2014-02-09 00:45:25,0.69,8.80,0.00,-7.98,-2.43,-0.73,6.83,32.33,1029.80,2147.94,1392.67,1835.14,1952.41,350.49,367.03,33.97,0000 0000 0000 0000 000000
2014-02-09 00:46:25,0.63,8.80,0.00,-7.96,-2.43,-0.70,6.93,32.58,1029.80,2147.96,1392.25,1834.97,1952.16,349.64,366.67,33.98,0000 0000 0000 0000 000000
2014-02-09 00:47:25,0.47,8.81,0.00,-7.96,-2.43,-0.70,6.86,32.17,1029.80,2147.96,1392.08,1834.48,1952.04,350.08,366.58,33.98,0000 0000 0000 0000 000000
2014-02-09 00:48:26,0.35,8.81,0.00,-7.96,-2.43,-0.66,6.77,32.50,1029.80,2147.94,1391.99,1834.17,1951.86,349.18,365.99,33.99,0000 0000 0000 0000 000000
2014-02-09 00:49:26,0.31,8.81,0.00,-7.93,-2.43,-0.69,6.91,32.33,1029.80,2147.96,1391.62,1834.06,1951.44,349.05,365.46,33.99,0000 0000 0000 0000 000000
2014-02-09 00:50:26,0.41,8.81,0.00,-7.93,-2.43,-0.71,6.80,32.50,1029.80,2147.96,1391.24,1834.01,1951.16,349.72,366.15,34.00,0000 0000 0000 0000 000000
2014-02-09 00:51:26,0.34,8.82,0.00,-7.96,-2.43,-0.68,6.92,32.54,1029.80,2147.93,1391.08,1833.86,1951.02,349.21,365.43,34.01,0000 0000 0000 0000 000000
2014-02-09 00:52:27,0.21,8.82,0.00,-7.94,-2.43,-0.63,7.02,32.58,1029.80,2147.92,1390.93,1833.44,1950.86,350.74,367.23,34.01,0000 0000 0000 0000 000000
2014-02-09 00:53:27,0.35,8.82,0.00,-7.97,-2.43,-0.65,6.90,32.42,1029.80,2147.93,1390.52,1833.19,1950.53,350.32,367.03,34.02,0000 0000 0000 0000 000000
2014-02-09 00:54:27,0.49,8.82,0.00,-7.94,-2.43,-0.66,6.91,32.33,1029.80,2147.94,1390.21,1833.07,1950.22,350.71,367.20,34.02,0000 0000 0000 0000 000000
2014-02-09 00:55:27,0.34,8.82,0.00,-7.90,-2.43,-0.64,6.94,32.54,1029.80,2147.92,1390.07,1833.01,1950.08,350.48,367.12,34.03,0000 0000 0000 0000 000000
2014-02-09 00:56:28,0.14,8.83,0.00,-7.91,-2.43,-0.61,6.82,32.33,1029.80,2147.88,1389.97,1832.90,1950.01,350.55,366.99,34.03,0000 0000 0000 0000 000000
2014-02-09 00:57:28,0.12,8.83,0.00,-7.92,-2.43,-0.59,6.90,32.21,1029.80,2147.87,1389.75,1832.53,1949.90,351.17,367.66,34.04,0000 0000 0000 0000 000000
2014-02-09 00:58:28,0.38,8.83,0.00,-7.91,-2.42,-0.56,6.78,32.46,1029.80,2147.90,1389.40,1832.24,1949.47,350.12,366.19,34.05,0000 0000 0000 0000 000000
2014-02-09 00:59:28,0.49,8.83,0.00,-7.95,-2.42,-0.61,6.90,32.38,1029.80,2147.90,1389.16,1832.08,1949.18,350.89,367.39,34.05,0000 0000 0000 0000 000000
2014-02-09 01:00:29,0.32,8.83,0.00,-7.95,-2.41,-0.65,6.77,32.63,1029.80,2147.92,1389.05,1832.03,1949.06,349.27,365.72,34.06,0000 0000 0000 0000 000000
2014-02-09 01:01:29,0.17,8.83,0.00,-7.96,-2.41,-0.68,6.70,32.42,1029.80,2147.93,1388.98,1832.00,1949.01,349.87,366.36,34.06,0000 0000 0000 0000 000000
2014-02-09 01:02:29,0.10,8.84,0.00,-7.98,-2.41,-0.66,6.77,32.17,1029.80,2147.90,1388.73,1831.95,1948.94,349.69,366.58,34.07,0000 0000 0000 0000 000000
2014-02-09 01:03:30,0.17,8.84,0.00,-7.99,-2.41,-0.64,6.97,32.25,1029.80,2147.84,1388.33,1831.58,1948.60,350.25,366.80,34.08,0000 0000 0000 0000 000000
2014-02-09 01:04:30,0.46,8.84,0.00,-7.97,-2.41,-0.65,6.89,32.33,1029.80,2147.79,1388.12,1831.21,1948.23,349.53,366.02,34.08,0000 0000 0000 0000 000000
2014-02-09 01:05:30,0.41,8.84,0.00,-7.99,-2.41,-0.60,6.95,32.17,1029.80,2147.79,1387.97,1831.07,1948.08,351.59,368.06,34.09,0000 0000 0000 0000 000000
2014-02-09 01:06:30,0.22,8.84,0.00,-7.95,-2.41,-0.59,6.81,32.08,1029.80,2147.68,1387.51,1831.02,1947.99,349.88,366.10,34.09,0000 0000 0000 0000 000000
2014-02-09 01:07:31,0.20,8.84,0.00,-7.92,-2.41,-0.62,6.89,32.58,1029.80,2147.64,1387.19,1830.86,1947.80,350.11,366.55,34.10,0000 0000 0000 0000 000000
2014-02-09 01:08:31,0.30,8.84,0.00,-7.90,-2.41,-0.68,6.69,32.42,1029.80,2147.66,1387.06,1830.44,1947.38,349.36,366.04,34.11,0000 0000 0000 0000 000000
2014-02-09 01:09:31,0.46,8.85,0.00,-7.92,-2.41,-0.69,6.70,32.33,1029.80,2147.59,1386.90,1830.16,1947.14,350.48,366.94,34.11,0000 0000 0000 0000 000000
2014-02-09 01:10:32,0.26,8.85,0.00,-7.95,-2.41,-0.71,6.92,32.38,1029.80,2147.57,1386.43,1830.05,1947.04,350.15,366.65,34.12,0000 0000 0000 0000 000000
2014-02-09 01:11:32,0.28,8.85,0.00,-7.96,-2.41,-0.67,6.80,32.42,1029.80,2147.50,1386.16,1830.00,1946.87,350.66,367.19,34.12,0000 0000 0000 0000 000000
2014-02-09 01:12:32,0.21,8.85,0.00,-7.93,-2.41,-0.70,6.91,32.38,1029.80,2147.42,1385.92,1829.75,1946.42,350.30,366.70,34.13,0000 0000 0000 0000 000000
2014-02-09 01:13:33,0.36,8.85,0.00,-7.93,-2.41,-0.68,6.77,32.13,1029.80,2147.55,1385.44,1829.32,1946.16,349.23,365.65,34.13,0000 0000 0000 0000 000000
2014-02-09 01:14:33,0.68,8.86,0.00,-7.92,-2.41,-0.62,6.71,32.33,1029.80,2147.53,1385.12,1829.11,1946.01,349.82,366.82,34.14,0000 0000 0000 0000 000000
2014-02-09 01:15:33,0.39,8.86,0.00,-7.95,-2.41,-0.59,6.77,32.42,1029.80,2147.46,1384.61,1828.99,1945.60,350.34,366.84,34.15,0000 0000 0000 0000 000000
2014-02-09 01:16:33,0.48,8.86,0.00,-7.92,-2.40,-0.63,6.87,32.13,1029.79,2147.47,1384.20,1828.62,1945.22,350.88,366.86,34.15,0000 0000 0000 0000 000000
2014-02-09 01:17:34,0.55,8.87,0.00,-7.88,-2.40,-0.64,6.88,32.58,1029.80,2147.48,1383.73,1828.24,1945.05,349.92,366.38,34.16,0000 0000 0000 0000 000000
2014-02-09 01:18:34,0.48,8.87,0.00,-7.86,-2.40,-0.62,6.88,32.67,1029.77,2147.48,1383.32,1828.08,1944.85,350.99,367.38,34.16,0000 0000 0000 0000 000000
2014-02-09 01:19:34,0.38,8.87,0.00,-7.88,-2.40,-0.61,6.76,32.33,1029.80,2147.44,1383.12,1828.01,1944.39,349.68,366.04,34.17,0000 0000 0000 0000 000000
2014-02-09 01:20:35,0.36,8.88,0.00,-7.88,-2.39,-0.65,6.73,32.33,1029.79,2147.43,1382.70,1827.61,1944.14,349.39,365.74,34.18,0000 0000 0000 0000 000000
2014-02-09 01:21:35,0.57,8.88,0.00,-7.84,-2.38,-0.66,6.84,32.08,1029.80,2147.56,1382.27,1827.23,1943.98,350.61,366.96,34.18,0000 0000 0000 0000 000000
2014-02-09 01:22:35,0.61,8.88,0.00,-7.83,-2.38,-0.69,6.67,32.46,1029.80,2147.68,1382.02,1827.08,1943.49,348.85,365.11,34.19,0000 0000 0000 0000 000000
2014-02-09 01:23:35,0.53,8.88,0.00,-7.89,-2.38,-0.73,6.82,32.42,1029.80,2147.75,1381.64,1827.01,1943.19,351.32,367.77,34.19,0000 0000 0000 0000 000000
2014-02-09 01:24:36,0.41,8.89,0.00,-7.92,-2.38,-0.71,6.89,32.33,1029.80,2147.80,1381.37,1826.82,1943.08,349.31,365.72,34.20,0000 0000 0000 0000 000000
2014-02-09 01:25:36,0.39,8.89,0.00,-7.92,-2.38,-0.66,6.81,32.38,1029.80,2147.83,1381.13,1826.44,1942.98,349.86,366.30,34.20,0000 0000 0000 0000 000000
2014-02-09 01:26:36,0.44,8.89,0.00,-7.97,-2.38,-0.66,6.69,32.29,1029.80,2147.85,1380.87,1826.17,1942.52,348.56,364.81,34.21,0000 0000 0000 0000 000000
2014-02-09 01:27:36,0.44,8.89,0.00,-7.96,-2.38,-0.66,6.88,32.46,1029.80,2147.76,1380.40,1826.05,1942.20,349.69,366.16,34.22,0000 0000 0000 0000 000000
2014-02-09 01:28:37,0.36,8.90,0.00,-7.93,-2.38,-0.63,6.84,32.33,1029.80,2147.81,1380.16,1825.96,1942.07,351.05,367.56,34.22,0000 0000 0000 0000 000000
2014-02-09 01:29:37,0.26,8.90,0.00,-7.93,-2.38,-0.61,6.92,32.46,1029.80,2147.76,1380.06,1825.65,1941.97,351.06,367.57,34.23,0000 0000 0000 0000 000000
2014-02-09 01:30:37,0.26,8.90,0.00,-7.89,-2.38,-0.58,6.86,32.13,1029.80,2147.76,1380.01,1825.30,1941.84,349.45,365.82,34.23,0000 0000 0000 0000 000000
2014-02-09 01:31:37,0.24,8.90,0.00,-7.89,-2.38,-0.56,6.75,32.38,1029.80,2147.71,1379.94,1825.11,1941.48,350.43,367.26,34.24,0000 0000 0000 0000 000000
2014-02-09 01:32:38,0.20,8.90,0.00,-7.90,-2.38,-0.52,6.86,32.71,1029.80,2147.71,1379.67,1825.04,1941.19,349.58,365.96,34.25,0000 0000 0000 0000 000000
2014-02-09 01:33:38,0.28,8.90,0.00,-7.87,-2.38,-0.61,7.04,32.71,1029.80,2147.68,1379.28,1825.01,1941.07,350.53,367.12,34.25,0000 0000 0000 0000 000000
2014-02-09 01:34:38,0.29,8.91,0.00,-7.85,-2.38,-0.62,6.72,32.79,1029.80,2147.66,1379.10,1824.90,1941.01,349.13,365.63,34.26,0000 0000 0000 0000 000000
2014-02-09 01:35:39,0.16,8.91,0.00,-7.89,-2.38,-0.66,6.86,32.58,1029.80,2147.54,1379.03,1824.63,1940.93,349.94,366.13,34.26,0000 0000 0000 0000 000000
2014-02-09 01:36:39,0.07,8.91,0.00,-7.90,-2.37,-0.60,6.85,32.46,1029.80,2147.36,1379.00,1824.26,1940.61,350.01,366.42,34.27,0000 0000 0000 0000 000000
2014-02-09 01:37:39,0.14,8.91,0.00,-7.92,-2.37,-0.59,6.84,32.42,1029.80,2147.43,1378.87,1824.10,1940.26,349.80,366.22,34.28,0000 0000 0000 0000 000000
2014-02-09 01:38:39,0.27,8.91,0.00,-7.92,-2.36,-0.58,6.93,32.46,1029.80,2147.31,1378.42,1824.02,1940.09,350.42,367.43,34.28,0000 0000 0000 0000 000000
2014-02-09 01:39:40,0.31,8.91,0.00,-7.90,-2.36,-0.62,6.92,32.42,1029.79,2147.40,1378.16,1823.98,1940.03,350.85,367.30,34.29,0000 0000 0000 0000 000000
2014-02-09 01:40:40,0.27,8.91,0.00,-7.90,-2.36,-0.60,6.86,32.38,1029.80,2147.45,1378.05,1823.80,1939.95,350.61,367.34,34.29,0000 0000 0000 0000 000000
2014-02-09 01:41:40,0.26,8.92,0.00,-7.85,-2.36,-0.56,6.69,32.21,1029.80,2147.51,1377.76,1823.45,1939.65,349.86,366.20,34.30,0000 0000 0000 0000 000000
2014-02-09 01:42:41,0.50,8.92,0.00,-7.84,-2.36,-0.59,6.86,32.38,1029.80,2147.48,1377.30,1823.19,1939.26,350.88,367.25,34.30,0000 0000 0000 0000 000000
2014-02-09 01:43:41,0.51,8.92,0.00,-7.87,-2.36,-0.59,6.79,32.38,1029.80,2147.33,1377.10,1823.07,1939.09,349.61,365.96,34.31,0000 0000 0000 0000 000000
2014-02-09 01:44:41,0.16,8.92,0.00,-7.90,-2.36,-0.64,6.92,32.58,1029.80,2147.37,1376.73,1822.96,1938.98,349.88,366.28,34.32,0000 0000 0000 0000 000000
2014-02-09 01:45:41,0.34,8.92,0.00,-7.90,-2.36,-0.60,6.91,32.42,1029.80,2147.41,1376.33,1822.56,1938.70,349.96,366.36,34.32,0000 0000 0000 0000 000000
2014-02-09 01:46:42,0.58,8.93,0.00,-7.90,-2.36,-0.61,6.89,32.38,1029.80,2147.40,1376.08,1822.22,1938.28,350.89,367.34,34.33,0000 0000 0000 0000 000000
2014-02-09 01:47:42,0.52,8.93,0.00,-7.92,-2.36,-0.60,6.73,32.50,1029.80,2147.58,1375.56,1822.06,1938.09,348.92,365.31,34.33,0000 0000 0000 0000 000000
2014-02-09 01:48:42,0.56,8.93,0.00,-7.96,-2.36,-0.60,6.99,32.46,1029.80,2147.60,1375.19,1821.80,1937.75,350.86,367.35,34.34,0000 0000 0000 0000 000000
2014-02-09 01:49:43,0.65,8.94,0.00,-7.92,-2.35,-0.60,6.87,32.42,1029.80,2147.67,1374.69,1821.34,1937.31,350.11,366.56,34.35,0000 0000 0000 0000 000000
2014-02-09 01:50:43,0.67,8.94,0.00,-7.87,-2.35,-0.60,6.77,32.33,1029.80,2147.70,1374.26,1821.12,1937.11,349.56,365.91,34.35,0000 0000 0000 0000 000000
2014-02-09 01:51:43,0.51,8.95,0.00,-7.84,-2.35,-0.63,6.82,32.63,1029.80,2147.78,1373.88,1821.02,1936.84,348.00,364.65,34.36,0000 0000 0000 0000 000000
2014-02-09 01:52:43,0.55,8.95,0.00,-7.82,-2.35,-0.62,6.79,32.29,1029.80,2147.77,1373.37,1820.66,1936.37,350.04,367.30,34.36,0000 0000 0000 0000 000000
2014-02-09 01:53:44,0.60,8.95,0.00,-7.86,-2.34,-0.63,6.89,32.46,1029.80,2147.82,1373.13,1820.27,1936.13,350.60,366.97,34.37,0000 0000 0000 0000 000000
2014-02-09 01:54:44,0.44,8.95,0.00,-7.89,-2.34,-0.60,6.88,32.50,1029.80,2147.83,1372.97,1820.10,1936.02,350.65,367.08,34.37,0000 0000 0000 0000 000000
2014-02-09 01:55:44,0.32,8.96,0.00,-7.85,-2.33,-0.60,6.77,32.42,1029.80,2147.81,1372.45,1820.03,1935.69,349.60,365.92,34.38,0000 0000 0000 0000 000000
2014-02-09 01:56:44,0.35,8.96,0.00,-7.86,-2.33,-0.66,6.89,32.63,1029.80,2147.78,1372.16,1819.78,1935.31,349.84,366.13,34.39,0000 0000 0000 0000 000000
2014-02-09 01:57:45,0.48,8.96,0.00,-7.86,-2.33,-0.67,6.83,32.54,1029.80,2147.85,1371.98,1819.32,1935.11,350.97,366.85,34.39,0000 0000 0000 0000 000000
2014-02-09 01:58:45,0.52,8.96,0.00,-7.87,-2.33,-0.71,6.76,32.25,1029.80,2147.93,1371.48,1819.11,1934.88,349.92,366.29,34.40,0000 0000 0000 0000 000000
2014-02-09 01:59:45,0.49,8.97,0.00,-7.91,-2.33,-0.65,6.84,32.50,1029.80,2147.92,1371.20,1819.03,1934.54,349.75,365.89,34.40,0000 0000 0000 0000 000000
2014-02-09 02:00:45,0.36,8.97,0.00,-7.91,-2.33,-0.57,6.91,32.63,1029.80,2147.92,1371.07,1818.96,1934.23,348.92,365.19,34.41,0000 0000 0000 0000 000000
2014-02-09 02:01:46,0.21,8.97,0.00,-7.87,-2.33,-0.61,6.85,32.25,1029.80,2147.88,1371.02,1818.61,1934.08,349.51,365.85,34.42,0000 0000 0000 0000 000000
2014-02-09 02:02:46,0.24,8.97,0.00,-7.88,-2.33,-0.61,6.73,32.29,1029.82,2147.84,1370.93,1818.30,1934.02,350.12,366.52,34.42,0000 0000 0000 0000 000000
2014-02-09 02:03:46,0.18,8.97,0.00,-7.87,-2.33,-0.57,6.88,32.67,1029.80,2147.77,1370.67,1818.11,1933.92,349.67,366.03,34.43,0000 0000 0000 0000 000000
2014-02-09 02:04:46,0.24,8.97,0.00,-7.85,-2.33,-0.60,6.72,32.46,1029.80,2147.65,1370.29,1818.04,1933.56,349.23,365.71,34.43,0000 0000 0000 0000 000000
2014-02-09 02:05:46,0.20,8.98,0.00,-7.88,-2.33,-0.56,6.94,32.42,1029.81,2147.60,1370.11,1817.99,1933.26,350.63,367.62,34.44,0000 0000 0000 0000 000000
2014-02-09 02:06:47,0.17,8.98,0.00,-7.87,-2.32,-0.52,6.76,32.38,1029.82,2147.55,1370.04,1817.96,1933.10,349.88,366.25,34.44,0000 0000 0000 0000 000000
2014-02-09 02:07:47,0.04,8.98,0.00,-7.87,-2.31,-0.51,6.98,32.42,1029.81,2147.37,1370.01,1817.62,1933.04,351.13,367.60,34.45,0000 0000 0000 0000 000000
2014-02-09 02:08:47,0.05,8.98,0.00,-7.88,-2.31,-0.52,6.94,32.75,1029.85,2147.22,1369.98,1817.23,1933.00,349.71,366.10,34.46,0000 0000 0000 0000 000000
2014-02-09 02:09:47,0.10,8.98,0.00,-7.89,-2.31,-0.57,6.87,32.38,1029.84,2147.20,1369.91,1817.08,1932.84,349.93,366.84,34.46,0000 0000 0000 0000 000000
2014-02-09 02:10:48,0.15,8.98,0.00,-7.88,-2.31,-0.54,6.99,32.79,1029.86,2147.26,1369.67,1817.03,1932.58,349.73,366.12,34.47,0000 0000 0000 0000 000000
2014-02-09 02:11:48,0.33,8.98,0.00,-7.85,-2.31,-0.56,6.83,32.29,1029.88,2147.27,1369.28,1817.01,1932.30,350.38,366.91,34.47,0000 0000 0000 0000 000000
2014-02-09 02:12:48,0.34,8.98,0.00,-7.84,-2.31,-0.53,6.89,32.63,1029.90,2147.24,1369.10,1816.94,1932.11,349.49,366.53,34.48,0000 0000 0000 0000 000000
2014-02-09 02:13:48,0.16,8.98,0.00,-7.84,-2.31,-0.56,6.83,32.33,1029.96,2147.16,1369.03,1816.77,1932.04,349.82,365.79,34.49,0000 0000 0000 0000 000000
2014-02-09 02:14:49,0.08,8.98,0.00,-7.84,-2.31,-0.58,6.89,32.58,1029.96,2147.12,1368.99,1816.39,1932.00,350.04,366.55,34.49,0000 0000 0000 0000 000000
2014-02-09 02:15:49,0.17,8.99,0.00,-7.85,-2.31,-0.52,6.86,32.54,1029.98,2147.13,1368.75,1816.14,1931.84,350.33,366.76,34.50,0000 0000 0000 0000 000000
2014-02-09 02:16:49,0.39,8.99,0.00,-7.83,-2.31,-0.52,6.86,32.38,1030.04,2147.12,1368.32,1816.05,1931.43,350.13,366.53,34.50,0000 0000 0000 0000 000000
2014-02-09 02:17:49,0.38,8.99,0.00,-7.84,-2.31,-0.50,6.96,32.63,1030.06,2147.08,1368.12,1816.02,1931.18,349.88,366.29,34.51,0000 0000 0000 0000 000000
2014-02-09 02:18:49,0.18,8.99,0.00,-7.86,-2.31,-0.49,6.77,32.13,1030.09,2147.06,1368.04,1815.96,1931.06,349.07,365.48,34.52,0000 0000 0000 0000 000000
2014-02-09 02:19:49,0.11,8.99,0.00,-7.84,-2.30,-0.53,6.76,32.25,1030.04,2147.05,1367.98,1815.65,1931.02,350.43,366.85,34.52,0000 0000 0000 0000 000000
2014-02-09 02:20:50,0.21,8.99,0.00,-7.84,-2.30,-0.61,6.64,32.46,1030.02,2147.06,1367.69,1815.27,1930.88,349.21,365.60,34.53,0000 0000 0000 0000 000000
2014-02-09 02:21:50,0.45,9.00,0.00,-7.83,-2.30,-0.57,6.92,32.25,1030.04,2147.08,1367.30,1815.09,1930.44,350.76,367.21,34.53,0000 0000 0000 0000 000000
2014-02-09 02:22:50,0.47,9.00,0.00,-7.80,-2.30,-0.63,6.73,32.54,1030.04,2147.04,1367.11,1815.03,1930.17,348.99,365.31,34.54,0000 0000 0000 0000 000000
2014-02-09 02:23:50,0.22,9.00,0.00,-7.78,-2.29,-0.59,6.81,32.54,1029.98,2147.01,1367.01,1815.00,1930.06,349.36,365.66,34.54,0000 0000 0000 0000 000000
2014-02-09 02:24:51,0.07,9.00,0.00,-7.78,-2.28,-0.54,6.89,32.50,1029.99,2147.01,1366.67,1814.80,1929.99,349.55,365.85,34.55,0000 0000 0000 0000 000000
2014-02-09 02:25:51,0.36,9.00,0.00,-7.77,-2.28,-0.50,6.81,32.50,1029.97,2147.03,1366.25,1814.40,1929.71,350.27,366.57,34.56,0000 0000 0000 0000 000000
2014-02-09 02:26:51,0.56,9.01,0.00,-7.77,-2.28,-0.54,6.91,32.54,1029.99,2147.02,1366.08,1814.14,1929.28,349.79,366.08,34.56,0000 0000 0000 0000 000000
2014-02-09 02:27:51,0.37,9.01,0.00,-7.78,-2.28,-0.58,6.78,32.38,1030.01,2147.02,1366.00,1814.05,1929.10,349.58,365.88,34.57,0000 0000 0000 0000 000000
2014-02-09 02:28:52,0.17,9.01,0.00,-7.78,-2.28,-0.66,6.77,32.29,1030.00,2147.03,1365.74,1814.02,1929.03,349.64,365.94,34.57,0000 0000 0000 0000 000000
2014-02-09 02:29:52,0.23,9.01,0.00,-7.77,-2.28,-0.55,6.72,32.04,1030.02,2147.05,1365.33,1813.97,1928.99,349.68,365.97,34.58,0000 0000 0000 0000 000000
2014-02-09 02:30:52,0.26,9.01,0.00,-7.80,-2.28,-0.58,6.78,32.46,1030.06,2147.03,1365.13,1813.75,1928.90,349.71,366.06,34.59,0000 0000 0000 0000 000000
2014-02-09 02:31:53,0.30,9.01,0.00,-7.81,-2.28,-0.51,7.02,32.54,1030.03,2147.05,1365.04,1813.40,1928.57,350.85,367.38,34.59,0000 0000 0000 0000 000000
2014-02-09 02:32:53,0.35,9.02,0.00,-7.81,-2.28,-0.55,6.98,32.79,1029.98,2147.04,1365.01,1813.17,1928.25,350.96,367.71,34.60,0000 0000 0000 0000 000000
2014-02-09 02:33:53,0.21,9.02,0.00,-7.82,-2.28,-0.52,6.63,32.67,1030.07,2147.04,1364.76,1813.06,1928.10,349.55,365.97,34.60,0000 0000 0000 0000 000000
2014-02-09 02:34:54,0.32,9.02,0.00,-7.82,-2.28,-0.53,6.87,32.67,1030.11,2147.03,1364.33,1813.01,1928.03,351.31,367.78,34.61,0000 0000 0000 0000 000000
2014-02-09 02:35:54,0.27,9.02,0.00,-7.81,-2.28,-0.51,6.73,32.42,1030.20,2147.02,1364.13,1812.94,1927.92,349.14,366.02,34.61,0000 0000 0000 0000 000000